Regional Weather Roundup
Issued by NWS

Home | Current Version | Previous Version | Graphics & Text | Print | Product List | Glossary On
Versions: 1 2 3 4 5 6 7 8 9 10 11 12 13 14 15 16 17 18 19 20 21 22 23 24 25 26 27 28 29 30 31 32 33 34 35 36 37 38 39 40 41 42 43 44 45 46 47 48 49 50
000
ASUS43 KIND 241300
RWRIN

WEATHER ROUNDUP FOR INDIANA
NATIONAL WEATHER SERVICE INDIANAPOLIS IN
900 AM EDT MON JUL 24 2017

NOTE: "FAIR" INDICATES FEW OR NO CLOUDS BELOW 12,000 FEET WITH NO
SIGNIFICANT WEATHER AND/OR OBSTRUCTIONS TO VISIBILITY.

* - STATION DOES NOT REPORT WEATHER SUCH AS PRECIPITATION OR FOG.

+ - STATION NOT QUALITY CONTROLLED BY THE NATIONAL WEATHER SERVICE.
    USE DATA WITH CAUTION...ESPECIALLY DEWPOINT AND RELATIVE
    HUMIDITY OBSERVATIONS.

INZ001>003-010>013-019-020-241400-
NORTHWEST INDIANA

CITY           SKY/WX    TMP DP  RH WIND       PRES   REMARKS
GARY /AIRPORT/ PTSUNNY   72  61  68 N14       29.98R
MONTICELLO +   PTSUNNY   69  66  90 N7        29.96R

$$

LMZ046-743>745-241400-
SOUTHERN LAKE MICHIGAN

STATION/POSITION TIME  TEMP    WIND        PRES    WAVE
                       AIR SEA DIR/SP/G            HT
                 (UTC) (F)     (DEG/KT/KT) (MB)    (FT)
BURNS HARBOR     1240   69      10/ 13/ 17 1015.6R
MICHIGAN CITY    1230   69     360/ 14/ 16   N/A
5NW MICH CITY    1250   69 74   10/ 12/ 16   N/A     5

$$

INZ004-005-014>016-021>024-241400-
NORTH CENTRAL INDIANA

CITY           SKY/WX    TMP DP  RH WIND       PRES   REMARKS
ELKHART        PTSUNNY   66  61  82 N9        29.96R
GOSHEN         PTSUNNY   67  60  78 N8        29.96R
SOUTH BEND     MOSUNNY   67  62  84 N9        29.97R

$$

INZ006>009-017-018-025>027-241400-
NORTHEAST INDIANA

CITY           SKY/WX    TMP DP  RH WIND       PRES   REMARKS
FORT WAYNE     CLOUDY    68  62  81 NW8       29.94R
KENDALLVILLE + CLOUDY    64  63  96 N9        29.95R

$$

INZ028-029-035-036-043>045-051>053-241400-
WEST CENTRAL INDIANA

CITY           SKY/WX    TMP DP  RH WIND       PRES   REMARKS
LAFAYETTE      SUNNY     70  66  87 N13       29.95R
TERRE HAUTE    SUNNY     73  67  81 N5        29.96R

$$

INZ030>032-037>040-046>048-054>057-064-065-241400-
CENTRAL INDIANA

CITY           SKY/WX    TMP DP  RH WIND       PRES   REMARKS
ANDERSON       MOSUNNY   72  66  83 MISG        N/A
COLUMBUS       MOSUNNY   72  66  83 NW7       29.94R
GREENWOOD *+   SUNNY    N/A N/A N/A CALM      29.96R
INDIANAPOLIS   PTSUNNY   72  66  81 N5        29.94R
-EAGLE CREEK   SUNNY     71  64  78 N6        29.94R
KOKOMO +       HAZE      70  65  84 MISG        N/A  VSB 1
MT COMFORT *+  SUNNY     68  66  94 N5        29.94R
SHELBYVILLE    SUNNY     72  65  78 NW7       29.94R

$$

INZ033-034-041-042-049-050-058-059-241400-
EAST CENTRAL INDIANA

CITY           SKY/WX    TMP DP  RH WIND       PRES   REMARKS
MUNCIE         MOSUNNY   72  66  81 N6        29.93S
RICHMOND +     MOSUNNY   70  66  88 NW6       29.94R

$$

INZ060-061-067>069-081>083-085>088-241400-
SOUTHWEST INDIANA

CITY           SKY/WX    TMP DP  RH WIND       PRES   REMARKS
EVANSVILLE     SUNNY     77  72  84 CALM      29.93S
HUNTINGBURG *+ SUNNY     75  72  90 SW5       29.93S

$$

INZ062-063-066-070>080-084-089>092-241400-
SOUTH CENTRAL AND SOUTHEAST INDIANA

CITY           SKY/WX    TMP DP  RH WIND       PRES   REMARKS
BLOOMINGTON    MOSUNNY   73  67  81 VRB3      29.95R
MADISON *+     MOSUNNY   73  70  88 NW6       29.95R
SEYMOUR +      MOSUNNY  N/A N/A N/A NW7       29.93R

$$





USA.gov is the U.S. government's official web portal to all federal, state and local government web resources and services.